Погода в Новом Златоусте

Россия / Свердловская область     56°13′12″N   58°27′06″E
темп.,
°C
ветер,
м/с
пор.,
м/с
влажн.,
%
обл.,
%
осадки,
мм/ч
давл.,
гПа
погр.,
м
26 февраля, пт
пт2623:00−25ююв229913 0.0 103020
02:00−26ююв1210033 0.0 102819
05:00−27юв1210025 0.0 102919
08:00−27юв129749 0.0 102819
11:00−21юв228553 0.0 1026182
14:00−15юв23742 0.0 1025424
17:00−14ююз11831 0.0 1024133
20:00−20вюв23947 0.0 102342
27 февраля, сб
сб2723:00−22вюв339431 0.0 102237
02:00−23вюв349053 0.0 102045
05:00−24вюв349028 0.0 101856
08:00−23вюв359280 0.0 101597
11:00−16вюв6108790 0.0 1013375
14:00−14вюв61087100 0.0 1011507
17:00−15вюв61192100 0.3 1010467
20:00−17вюв61193100 0.4 1010404
28 февраля, вс
вс2823:00−17вюв5109297 0.4 1009332
02:00−16в599296 0.1 1007295
05:00−14в499497 0.2 1007291
08:00−14в499596 0.2 1006297
11:00−10в589295 0.3 1006419
14:00−7в5791100 0.3 1006516
17:00−7в5893100 0.6 1007543
20:00−11всв61092100 0.2 1008374
1 марта, пн
пн123:00−14всв5109296 0.3 1011356
02:00−15всв599494 0.3 1012323
05:00−16всв599595 0.4 1013324
08:00−17всв4895100 0.2 1015314
11:00−16всв469399 0.4 1016333
14:00−12св348695 0.0 1016451
17:00−11ссв238898 0.1 1017509
20:00−16ссв229595 0.0 101820
2 марта, вт
вт223:00−19ссз119981 0.0 101920
02:00−21з1110063 0.0 101820
05:00−21юз2210075 0.0 101820
08:00−21ююз3410083 0.0 101747
11:00−16юз479476 0.0 1015287
14:00−11юз598797 0.0 1013575
17:00−11юз598699 0.0 1010616
20:00−12ююз51193100 0.1 1009492